Theta_e
307 307 306 305 304 304 303 302 302 303 304 305 306 307 307 307 308 308 309 309 310 310 309 310 311 311 311 311 310 309 307 306 306 311 311 312 314 314 317 318 320 322 326
307 305 304 303 302 301 300 301 301 301 304 304 304 307 307 307 307 307 308 308 309 310 309 310 311 311 311 312 312 311 309 309 308 309 313 313 315 316 316 319 322 324 325
304 303 303 301 300 299 298 297 297 298 301 303 304 305 306 306 307 307 307 307 307 308 308 309 310 311 311 312 313 312 311 311 311 311 312 313 315 316 316 318 321 323 324
302 301 301 299 298 297 298 297 296 296 297 303 303 304 303 305 306 305 306 307 307 306 306 306 309 309 310 311 312 313 312 313 313 313 313 315 316 316 317 318 318 321 322
301 301 301 301 299 299 300 299 297 299 301 302 302 304 304 304 302 305 304 305 306 306 304 304 304 307 309 309 310 310 311 312 313 314 313 316 316 317 318 319 320 320 320
301 301 302 302 300 299 300 300 297 297 299 302 303 303 303 301 301 302 303 303 305 304 303 303 303 304 307 310 309 309 309 310 310 311 311 312 314 317 318 319 319 319 318
301 302 302 302 299 299 299 300 299 298 300 301 301 300 298 298 299 302 303 302 303 303 302 302 301 303 304 308 309 308 307 307 307 308 309 310 312 313 315 317 318 317 319
302 302 302 301 300 299 299 300 300 299 298 298 298 298 299 299 300 302 301 301 302 302 301 301 301 301 302 304 307 307 307 307 306 306 307 307 309 312 313 315 316 317 316
302 302 299 299 299 299 299 299 300 300 298 299 298 299 299 299 300 300 301 301 301 301 301 300 300 300 301 302 303 305 305 305 306 307 306 306 306 308 311 312 312 313 313
301 301 300 299 298 298 299 299 299 300 299 298 299 299 299 299 299 299 300 301 300 300 300 300 300 300 300 301 301 302 304 304 305 304 305 305 305 305 308 310 312 312 312
300 300 300 300 299 298 298 299 299 300 299 299 298 298 297 298 298 298 298 299 299 299 299 300 300 300 300 301 301 301 302 303 304 304 303 303 304 304 305 306 307 310 311
300 300 300 299 300 298 298 298 299 299 300 299 298 297 297 297 298 298 298 298 298 299 299 299 299 299 299 300 301 301 302 302 302 302 303 303 303 303 304 304 306 306 306
300 300 300 298 298 297 297 298 299 300 300 299 299 298 297 298 298 298 298 298 298 298 298 297 297 297 297 298 299 300 301 301 302 302 302 303 303 303 303 304 305 305 305
300 300 300 299 298 297 298 298 299 300 300 299 299 299 298 298 298 298 297 296 296 297 296 296 296 296 296 296 296 297 298 299 300 300 301 302 302 303 303 303 304 305 306
300 299 299 297 297 297 297 298 298 299 299 299 299 299 299 298 298 298 297 296 296 296 296 296 296 296 295 295 294 294 295 296 298 299 299 301 301 302 302 303 303 304 305
300 299 298 298 297 297 297 298 298 298 299 299 299 299 299 298 298 297 296 296 296 297 297 296 295 296 295 294 293 293 294 294 295 297 298 299 300 301 301 302 303 303 303
299 298 299 298 298 297 297 298 299 299 299 299 300 299 299 299 298 297 297 297 297 296 296 296 295 295 294 293 293 292 292 293 293 295 296 297 298 300 301 301 301 302 302
298 299 298 298 298 297 297 298 299 299 299 299 299 299 299 298 297 297 297 296 295 295 295 294 293 293 292 292 292 291 291 292 292 293 295 296 297 298 300 300 301 301 301
300 299 299 298 297 297 298 299 299 299 300 299 299 298 298 296 297 297 295 295 295 294 293 292 293 292 291 291 291 291 291 292 292 293 293 295 296 298 299 300 301 301 301
300 299 298 298 297 297 298 299 299 300 299 298 298 296 296 297 297 296 295 294 293 293 292 292 291 291 291 291 291 291 292 292 292 293 294 295 297 298 299 300 301 301 301
300 299 298 297 296 298 299 299 300 299 298 298 296 297 297 297 296 296 296 295 295 294 293 293 293 293 293 293 293 293 292 293 293 294 295 296 297 299 300 301 301 301 302
299 298 297 296 298 299 299 299 299 298 298 297 297 297 297 297 297 297 297 297 297 296 296 296 296 295 295 294 294 294 294 294 294 296 297 298 299 300 301 301 302 302 302
297 295 295 298 299 299 298 298 298 297 297 297 297 297 297 297 298 298 299 299 298 298 298 298 298 298 298 297 297 296 296 297 298 299 300 300 300 301 302 302 302 302 303
295 294 297 299 299 298 298 298 297 298 297 298 297 297 297 298 298 299 299 299 300 300 300 299 300 300 300 300 300 300 300 300 300 301 301 302 301 302 302 302 302 302 301
293 295 298 299 299 298 298 298 298 297 298 298 297 297 297 298 299 300 300 300 300 301 301 301 301 301 301 302 302 302 302 302 302 302 302 302 302 302 302 301 302 302 301
294 296 297 298 298 298 297 297 298 297 298 298 297 297 297 298 299 300 301 301 301 302 302 302 303 303 303 304 304 304 303 303 303 303 303 303 303 302 302 303 302 301 301
Wind_Speed
10 11 11 10 12 13 15 16 17 16 15 17 19 21 22 23 23 25 24 24 25 28 25 21 21 21 18 17 15 13 12 12 18 23 26 29 18 12 7 5 1 2 8
7 9 9 11 13 15 16 16 18 17 14 17 17 17 20 22 22 23 25 26 27 26 28 23 21 22 25 18 14 14 12 12 17 25 28 28 15 7 13 2 4 8 12
10 9 9 12 15 15 18 20 20 18 15 14 15 17 17 20 21 22 24 24 24 26 28 28 27 24 24 21 15 14 13 15 18 25 31 22 9 6 9 2 9 7 9
9 9 10 13 13 17 21 24 21 17 14 13 15 16 18 17 18 22 23 22 22 23 25 27 27 27 25 22 18 17 17 17 18 22 19 11 2 7 7 1 4 8 8
7 8 10 11 13 18 23 25 19 15 13 13 14 15 18 20 19 18 22 22 22 23 23 25 27 26 21 23 21 19 18 17 16 18 20 11 1 4 7 4 2 5 7
6 8 10 10 13 18 22 26 21 15 14 11 13 17 21 22 19 15 17 22 21 20 22 27 28 24 23 18 17 19 21 20 21 21 22 20 12 5 4 4 2 3 2
5 7 10 11 14 15 19 23 24 20 16 15 17 20 21 19 17 12 12 17 19 21 25 25 26 23 20 21 16 16 18 19 22 21 22 24 19 14 7 2 4 6 5
7 8 10 11 12 13 16 20 23 24 22 20 17 16 17 18 18 13 13 15 17 19 21 22 23 21 24 20 17 14 14 16 19 20 21 20 21 15 10 6 6 6 7
6 9 11 11 11 13 15 17 21 25 27 22 18 16 17 19 19 18 14 13 16 18 20 20 19 19 19 18 18 14 13 13 13 11 14 17 18 17 13 6 2 4 9
7 9 10 12 14 13 14 16 18 22 26 22 17 16 16 16 20 21 20 17 17 17 18 18 18 18 18 17 18 18 15 13 12 10 11 13 15 19 15 15 8 2 11
7 9 11 13 13 13 14 15 16 17 21 22 20 18 18 19 19 20 20 19 19 19 19 19 19 19 18 17 16 16 16 14 13 12 11 11 12 13 13 15 15 12 10
7 10 12 13 12 14 14 15 15 15 18 21 22 22 19 20 21 20 19 19 19 20 20 21 20 19 18 17 15 14 13 12 12 11 10 9 9 9 9 9 8 9 9
6 10 12 12 13 15 16 14 15 13 15 19 20 20 21 21 22 20 19 20 20 20 21 21 21 22 20 17 14 14 13 12 10 9 9 8 9 9 8 7 5 5 5
7 11 11 13 13 13 16 15 15 13 13 16 19 20 23 23 24 25 27 26 23 22 21 22 23 24 24 17 17 14 12 10 11 10 10 9 8 8 8 8 6 3 2
9 11 11 13 13 14 15 16 15 14 13 15 18 19 24 26 24 26 26 26 24 23 23 22 24 25 25 23 24 19 15 13 10 8 8 8 7 7 8 9 6 4 2
11 14 10 13 14 14 17 18 16 14 14 15 17 20 20 24 25 24 25 24 23 23 23 23 24 21 19 22 22 20 16 15 13 11 8 7 7 7 8 8 6 4 1
13 10 12 13 14 17 17 20 20 15 14 14 18 19 20 24 24 24 25 25 25 24 23 22 21 20 18 16 20 18 17 15 13 10 8 7 6 5 6 7 6 5 3
8 11 14 14 16 17 19 19 20 18 14 16 20 22 21 22 22 23 26 28 24 25 19 22 20 19 22 15 19 19 14 14 13 12 7 7 7 6 5 7 7 8 5
11 12 12 16 17 19 19 18 19 14 16 21 24 23 25 22 25 27 28 25 23 20 22 22 16 24 16 15 16 15 12 13 12 13 7 5 6 6 5 6 6 6 6
13 13 15 17 18 18 18 17 14 14 20 22 24 26 27 29 32 28 28 23 24 21 22 22 19 19 16 15 14 13 12 12 11 10 6 5 7 6 6 7 7 7 4
15 14 15 16 17 18 17 14 15 18 20 21 23 23 25 29 28 25 25 25 23 23 22 21 20 19 18 16 14 13 11 11 9 7 6 7 7 6 6 6 6 6 6
14 15 15 15 17 17 17 16 17 18 19 20 22 23 26 27 23 23 24 24 23 23 24 24 23 20 19 18 16 14 12 10 7 6 7 7 7 7 7 8 9 8 6
14 12 12 13 16 18 17 15 15 18 19 20 21 24 26 25 21 21 23 23 23 23 23 23 22 21 20 20 19 17 15 12 10 9 9 9 9 8 9 9 10 8 7
13 11 11 13 15 17 18 17 17 18 20 20 22 23 24 22 20 20 21 22 22 22 22 22 22 21 20 18 17 15 14 13 11 11 11 11 11 10 10 11 9 8 6
11 10 11 13 15 16 17 18 19 19 20 22 23 23 23 20 18 19 20 22 22 22 22 22 20 20 18 17 16 16 15 14 12 11 10 11 11 12 11 9 10 6 5
11 11 12 13 14 15 17 18 18 18 20 23 23 23 20 18 17 18 20 22 23 24 24 23 19 18 17 15 15 15 15 14 13 13 13 14 13 12 13 11 10 8 8
Wind_Direction
345 336 347 356 358 350 345 340 337 337 332 342 350 356 358 3 7 12 8 5 3 1 2 359 356 352 337 335 331 320 301 285 280 320 320 334 344 318 296 336 220 222 130
338 2 10 4 355 343 343 342 340 335 326 336 345 354 353 356 1 8 11 13 13 9 11 5 360 1 358 344 332 331 318 305 295 305 327 337 333 326 320 346 124 108 105
18 25 7 356 353 354 351 340 333 323 325 333 338 339 350 353 355 5 5 4 9 13 13 12 12 6 359 0 350 337 336 327 320 313 320 337 318 327 345 65 136 133 117
23 9 0 2 4 1 356 348 340 333 328 328 328 331 338 341 345 356 357 357 358 5 9 11 12 16 11 5 360 350 343 335 330 333 340 351 280 286 337 112 91 105 103
8 357 2 8 5 7 0 359 349 349 343 328 323 322 329 333 339 342 345 350 349 352 3 4 5 8 8 22 23 20 16 14 6 356 11 32 3 325 348 2 56 91 104
360 352 353 352 360 6 0 2 357 353 345 336 326 329 329 329 330 333 336 339 344 352 359 353 354 356 11 7 17 24 28 28 33 27 21 19 25 337 306 279 223 180 141
2 339 344 351 3 352 1 3 13 9 355 335 327 331 339 348 350 340 341 338 341 347 348 347 351 357 2 12 15 25 24 28 27 23 24 23 10 1 353 285 261 214 193
6 342 342 355 353 345 350 358 9 9 360 349 346 352 354 353 353 348 347 345 344 340 343 348 351 354 359 0 359 4 17 23 27 22 20 18 21 11 357 325 271 244 174
345 352 358 357 344 342 337 351 0 5 8 7 6 1 358 359 358 351 342 341 340 339 341 343 347 350 354 351 340 343 350 359 15 26 20 10 10 19 31 18 74 181 156
349 354 349 346 351 335 333 345 352 1 9 9 10 6 6 11 10 8 4 357 351 352 354 352 349 348 350 350 346 340 340 343 348 353 1 14 13 6 14 43 51 98 145
342 345 345 344 341 328 333 341 343 350 0 10 11 6 16 11 7 4 3 359 355 351 349 349 348 348 347 346 344 338 339 332 330 337 338 347 352 5 25 22 39 58 80
344 347 350 343 328 330 332 336 335 337 350 1 7 14 13 13 11 7 4 1 356 349 347 346 346 344 340 337 332 330 328 325 328 330 331 336 345 356 6 14 29 39 46
354 351 347 345 335 337 338 339 339 330 342 354 1 9 5 4 6 6 1 355 351 351 349 347 344 345 340 336 336 325 318 321 323 327 337 341 351 351 343 341 348 1 39
5 351 345 334 335 340 352 352 347 339 335 344 354 4 3 359 356 357 359 354 352 350 349 349 348 343 338 340 341 338 333 330 333 336 339 340 339 342 352 350 350 323 330
343 338 338 339 339 341 339 339 343 345 337 339 345 348 352 355 352 354 351 348 348 341 337 335 336 342 348 349 349 349 343 337 334 333 339 343 348 356 4 0 357 357 322
337 337 337 344 345 341 348 351 341 333 334 337 339 334 341 343 344 346 342 343 336 332 334 340 345 337 339 341 344 345 343 343 338 338 337 338 353 5 5 10 10 9 356
336 341 345 340 343 347 343 347 353 345 335 341 343 340 337 340 341 346 337 334 334 339 346 344 344 338 333 340 336 345 339 346 343 345 346 346 348 359 2 2 360 353 349
348 341 343 340 346 348 344 337 342 342 340 342 343 342 341 342 349 342 338 342 350 348 345 337 342 341 336 332 335 342 342 346 355 356 357 3 358 352 359 4 8 12 20
337 336 339 349 351 350 348 339 341 341 344 343 343 344 350 1 351 350 356 351 345 353 343 350 342 343 350 343 341 343 346 352 356 354 359 357 357 357 13 358 7 6 4
350 349 346 355 352 351 347 347 344 345 346 350 355 358 0 355 357 1 356 2 1 360 357 2 357 356 358 356 357 357 353 352 351 352 358 4 8 11 20 9 4 359 351
348 347 353 355 357 356 359 358 349 347 353 1 359 1 357 356 359 5 9 13 11 12 9 6 4 2 1 359 1 3 359 357 355 3 9 15 19 31 14 9 15 12 357
346 347 351 357 2 0 359 350 348 355 0 356 356 359 356 360 8 12 16 16 18 18 16 13 15 15 12 12 13 13 12 12 13 25 23 26 27 18 22 17 9 1 359
351 355 4 5 5 0 355 2 10 7 359 359 1 358 359 3 13 15 16 15 15 17 17 13 14 19 22 25 28 29 32 38 38 40 34 24 27 22 12 360 351 350 354
2 6 9 9 8 11 13 11 8 2 4 6 0 0 360 4 12 15 15 16 17 18 15 11 14 18 20 22 21 23 25 25 26 28 28 19 10 2 358 350 348 345 345
8 11 9 8 7 7 5 4 4 6 8 3 1 360 360 6 14 15 14 16 16 19 15 10 9 14 18 20 22 21 24 22 19 16 15 4 1 355 356 352 348 342 327
12 12 9 6 2 359 359 0 4 5 5 3 2 2 5 11 14 15 15 14 15 14 11 12 12 10 11 17 18 20 16 11 7 5 5 3 358 0 357 345 336 332 319